Terug naar catalogus

NOAA 16 DEB

ActiefSSO
NORAD 41066·DEBRIS·🇺🇸 United States

Gelanceerd Sep 21, 2000 vanaf Vandenberg Space Force Base

Loading…

Volgende Passages (komende 24 uur)

TLE

VersSource: Space-Track

Epoch: Sep 14, 2026, 11:05 UTC

1 41066U 00055Z   26257.46218612  .00000568  00000-0  28044-3 0  9999
2 41066  98.6563 335.0739 0015416   8.8350 351.3096 14.21198058558719

Volg NOAA 16 DEB in realtime met AllMySat

Download on the App Store